FW6045 Weather Reports


Display with metric or nautical units.
time (UTC)temp
F
wind
direction
speed
MPH
gust
MPH
rain 1hr
in
rain 24hr
in
rain mn
in
humidity
%
barometer
mb
20260503001600 50 348 5.0 13.0 0.00 0.00 0.00 50 1016.3
20260503000106 51 296 4.0 13.0 0.00 0.00 0.00 47 1016.2
20260502234619 51 325 5.0 15.0 0.00 0.00 0.00 47 1016.0
20260502233058 51 338 9.0 18.0 0.00 0.00 0.00 46 1015.9
20260502231556 51 348 10.0 16.0 0.00 0.00 0.00 45 1015.9
20260502230058 52 315 6.0 17.0 0.00 0.00 0.00 45 1016.0
20260502224603 53 351 8.0 17.0 0.00 0.00 0.00 45 1015.8
20260502223105 53 336 6.0 15.0 0.00 0.00 0.00 46 1015.8
20260502221603 52 291 7.0 14.0 0.00 0.00 0.00 46 1015.8
20260502214617 53 317 6.0 20.0 0.00 0.00 0.00 45 1015.6
20260502213123 52 331 12.0 18.0 0.00 0.00 0.00 45 1015.7
20260502211600 53 314 8.0 18.0 0.00 0.00 0.00 44 1015.5
20260502210101 52 323 9.0 16.0 0.00 0.00 0.00 47 1015.5
20260502204559 53 15 10.0 17.0 0.00 0.00 0.00 46 1015.7
20260502203116 52 299 8.0 15.0 0.00 0.00 0.00 47 1015.6
20260502201556 53 330 7.0 15.0 0.00 0.00 0.00 48 1015.6
20260502194558 51 311 10.0 15.0 0.00 0.00 0.00 50 1016.0
20260502193058 51 325 9.0 17.0 0.00 0.00 0.00 51 1016.0
20260502191602 51 355 10.0 18.0 0.00 0.00 0.00 50 1015.9
20260502190059 51 304 7.0 17.0 0.00 0.00 0.00 49 1016.1
20260502184558 51 348 9.0 16.0 0.00 0.00 0.00 49 1016.2
20260502183107 52 225 11.0 16.0 0.00 0.00 0.00 50 1016.4
20260502181557 52 300 8.0 14.0 0.00 0.00 0.00 51 1016.7
20260502163111 51 277 5.0 12.0 0.00 0.00 0.00 57 1017.3
20260502161620 50 288 8.0 12.0 0.00 0.00 0.00 58 1017.5
20260502151558 47 295 3.0 9.0 0.00 0.00 0.00 59 1017.7
20260502130106 44 40 7.0 11.0 0.00 0.00 0.00 65 1017.2
20260502123115 43 360 2.0 7.0 0.00 0.00 0.00 74 1017.4
20260502121558 41 43 3.0 6.0 0.00 0.00 0.00 77 1016.8
20260502120114 41 25 1.0 5.0 0.00 0.00 0.00 77 1016.8
20260502114604 41 46 3.0 5.0 0.00 0.00 0.00 77 1016.6
20260502113127 40 82 2.0 8.0 0.00 0.00 0.00 80 1016.3
20260502111556 40 68 4.0 9.0 0.00 0.00 0.00 80 1016.1
20260502110058 39 22 3.0 6.0 0.00 0.00 0.00 82 1016.5
20260502104557 39 27 4.0 7.0 0.00 0.00 0.00 81 1016.4
20260502103055 40 11 4.0 7.0 0.00 0.00 0.00 80 1016.6
20260502101604 41 23 4.0 8.0 0.00 0.00 0.00 77 1016.5
20260502100106 41 63 5.0 8.0 0.00 0.00 0.00 77 1016.3
20260502070111 42 13 5.0 8.0 0.00 0.00 0.00 77 1016.2
20260502064558 43 30 3.0 6.0 0.00 0.00 0.00 75 1016.0
20260502063057 43 53 4.0 8.0 0.00 0.00 0.00 75 1016.0
20260502061556 43 24 6.0 8.0 0.00 0.00 0.00 75 1016.3
20260502060056 43 30 3.0 5.0 0.00 0.00 0.00 75 1016.5
20260502054556 43 30 3.0 4.0 0.00 0.00 0.00 75 1016.8
20260502053100 43 28 2.0 5.0 0.00 0.00 0.00 75 1016.8
20260502051603 43 24 3.0 7.0 0.00 0.00 0.00 75 1016.7
20260502050059 43 27 3.0 8.0 0.00 0.00 0.00 75 1016.5
20260502044614 43 16 5.0 9.0 0.00 0.00 0.00 74 1016.7
20260502043104 44 14 4.0 9.0 0.00 0.00 0.00 73 1016.6
20260502041558 44 9 6.0 9.0 0.00 0.00 0.00 72 1016.8
20260502040104 45 5 6.0 10.0 0.00 0.00 0.00 71 1016.8
20260502034557 45 355 6.0 10.0 0.00 0.00 0.00 69 1016.8
20260502033057 46 360 7.0 9.0 0.00 0.00 0.00 67 1016.7
20260502031557 47 9 5.0 10.0 0.00 0.00 0.00 65 1016.7
20260502030101 48 355 5.0 9.0 0.00 0.00 0.00 64 1016.7
20260502024559 47 5 5.0 9.0 0.00 0.00 0.00 64 1016.7
20260502023056 47 347 4.0 6.0 0.00 0.00 0.00 65 1016.7
20260502021558 48 349 3.0 6.0 0.00 0.00 0.00 63 1016.3
20260502020057 49 360 3.0 5.0 0.00 0.00 0.00 62 1016.0
20260502014554 49 19 4.0 7.0 0.00 0.00 0.00 61 1015.8
20260502013058 50 5 4.0 5.0 0.00 0.00 0.00 60 1015.6
20260502011557 50 352 3.0 7.0 0.00 0.00 0.00 60 1015.5
20260502010056 50 5 4.0 6.0 0.00 0.00 0.00 59 1015.6
20260502004556 51 9 4.0 8.0 0.00 0.00 0.00 59 1015.2
20260502003057 51 340 3.0 6.0 0.00 0.00 0.00 57 1015.1